TimePST,TemperatureF,Dew PointF,Humidity,Sea Level PressureIn,VisibilityMPH,Wind Direction,Wind SpeedMPH,Gust SpeedMPH,PrecipitationIn,Events,Conditions,WindDirDegrees,DateUTC
12:22 AM,44.6,42.8,93,30.03,4.0,SSE,17.3,33.4,0.04,Rain,Light Rain,150,2012-11-23 08:22:00
12:53 AM,46.0,44.1,93,30.04,4.0,SSE,12.7,28.8,0.06,Rain,Light Rain,160,2012-11-23 08:53:00
1:37 AM,46.4,44.6,93,30.02,1.8,SSE,11.5,25.3,0.08,Rain,Rain,160,2012-11-23 09:37:00
1:51 AM,46.4,44.6,93,30.01,2.5,SSE,11.5,24.2,0.12,Rain,Rain,150,2012-11-23 09:51:00
1:53 AM,46.9,45.0,93,30.01,2.5,SSE,9.2,23.0,0.12,Rain,Rain,150,2012-11-23 09:53:00
2:13 AM,46.4,44.6,93,30.00,4.0,SSE,12.7,25.3,0.04,Rain,Light Rain,150,2012-11-23 10:13:00
2:38 AM,48.2,46.4,93,30.00,2.5,South,8.1,19.6,0.07,Rain,Rain,180,2012-11-23 10:38:00
2:47 AM,48.2,46.4,93,30.00,1.2,SSE,12.7,25.3,0.11,Rain,Rain,160,2012-11-23 10:47:00
2:53 AM,48.0,46.0,93,30.01,1.2,South,13.8,23.0,0.14,Rain,Rain,180,2012-11-23 10:53:00
3:02 AM,48.2,46.4,93,30.00,1.8,South,13.8,23.0,0.03,Rain,Rain,170,2012-11-23 11:02:00
3:29 AM,48.2,46.4,93,30.00,2.0,South,12.7,26.5,0.07,Rain,Light Rain,170,2012-11-23 11:29:00
3:36 AM,48.2,46.4,93,30.00,1.2,South,11.5,25.3,0.08,Rain,Light Rain,180,2012-11-23 11:36:00
3:50 AM,48.2,46.4,93,30.00,2.0,South,9.2,25.3,0.10,Rain,Light Rain,180,2012-11-23 11:50:00
3:51 AM,48.0,46.9,96,30.00,2.0,South,12.7,21.9,0.10,Rain,Light Rain,180,2012-11-23 11:51:00
4:05 AM,48.2,46.4,93,30.00,1.8,South,12.7,31.1,0.01,Rain,Light Rain,190,2012-11-23 12:05:00
4:16 AM,48.2,46.4,93,30.00,2.0,South,12.7,34.5,0.02,Rain,Light Rain,190,2012-11-23 12:16:00
4:25 AM,48.2,46.4,93,29.99,2.5,South,18.4,28.8,0.02,Rain,Light Rain,170,2012-11-23 12:25:00
4:38 AM,48.2,46.4,93,30.00,1.8,South,10.4,23.0,0.03,Rain,Light Rain,180,2012-11-23 12:38:00
4:44 AM,48.2,46.4,93,29.99,1.2,South,11.5,24.2,0.03,Rain,Light Rain,180,2012-11-23 12:44:00
4:53 AM,48.0,46.9,96,30.00,1.2,SSE,12.7,26.5,0.04,Rain,Light Rain,160,2012-11-23 12:53:00
4:57 AM,48.2,46.4,93,29.99,1.5,South,10.4,29.9,0.00,Rain,Light Rain,180,2012-11-23 12:57:00
5:11 AM,48.2,46.4,93,30.00,2.0,South,11.5,27.6,0.01,Rain,Light Rain,190,2012-11-23 13:11:00
5:33 AM,48.2,46.4,93,30.00,1.8,South,8.1,26.5,0.02,Rain,Light Rain,190,2012-11-23 13:33:00
5:53 AM,48.9,48.0,97,30.01,1.2,SSW,13.8,23.0,0.03,Rain,Light Rain,200,2012-11-23 13:53:00
6:31 AM,48.2,48.2,100,30.01,2.0,South,15.0,24.2,0.04,Rain,Light Rain,180,2012-11-23 14:31:00
6:43 AM,48.2,48.2,100,30.02,3.0,South,11.5,17.3,0.05,Rain,Light Rain,190,2012-11-23 14:43:00
6:53 AM,48.9,48.0,97,30.03,1.8,South,12.7,20.7,0.05,Rain,Light Rain,190,2012-11-23 14:53:00
7:14 AM,48.2,48.2,100,30.02,2.5,South,8.1,-,0.01,Rain,Light Rain,190,2012-11-23 15:14:00
7:23 AM,48.2,48.2,100,30.02,3.0,SSW,5.8,-,0.01,Rain,Light Rain,200,2012-11-23 15:23:00
7:33 AM,48.2,48.2,100,30.03,1.8,South,8.1,-,0.02,Rain,Rain,190,2012-11-23 15:33:00
7:50 AM,48.2,48.2,100,30.02,2.5,Variable,6.9,-,0.05,Rain,Light Rain,0,2012-11-23 15:50:00
7:53 AM,48.9,48.0,97,30.02,3.0,SSE,6.9,-,0.06,Rain,Light Rain,150,2012-11-23 15:53:00
8:53 AM,48.9,48.9,100,30.04,4.0,South,3.5,-,0.00,,Overcast,190,2012-11-23 16:53:00
9:04 AM,48.2,48.2,100,30.04,2.0,Variable,3.5,-,0.00,Rain,Light Rain,0,2012-11-23 17:04:00
9:11 AM,48.2,48.2,100,30.04,1.5,Calm,Calm,-,0.01,Rain,Light Rain,0,2012-11-23 17:11:00
9:22 AM,48.2,48.2,100,30.04,1.0,Calm,Calm,-,0.01,Rain,Light Rain,0,2012-11-23 17:22:00
9:33 AM,50.0,48.2,94,30.05,2.0,Calm,Calm,-,0.01,Rain,Light Rain,0,2012-11-23 17:33:00
9:42 AM,50.0,48.2,94,30.05,4.0,Variable,3.5,-,0.02,,Overcast,0,2012-11-23 17:42:00
9:49 AM,50.0,48.2,94,30.05,4.0,Variable,4.6,-,N/A,,Overcast,0,2012-11-23 17:49:00
9:53 AM,50.0,48.9,96,30.05,4.0,South,3.5,-,0.02,,Overcast,180,2012-11-23 17:53:00
10:07 AM,48.2,48.2,100,30.05,1.8,SSE,5.8,-,N/A,Rain,Light Rain,150,2012-11-23 18:07:00
10:27 AM,50.0,48.2,94,30.05,3.0,SSE,3.5,-,0.00,Rain,Light Rain,160,2012-11-23 18:27:00
10:53 AM,50.0,48.9,96,30.05,4.0,Calm,Calm,-,0.00,,Overcast,0,2012-11-23 18:53:00
11:31 AM,51.8,50.0,94,30.04,5.0,SSW,3.5,-,N/A,,Mostly Cloudy,200,2012-11-23 19:31:00
11:53 AM,51.1,48.9,92,30.04,5.0,Calm,Calm,-,N/A,,Mostly Cloudy,0,2012-11-23 19:53:00
12:20 PM,51.8,48.2,88,30.04,5.0,Calm,Calm,-,N/A,,Overcast,0,2012-11-23 20:20:00
12:45 PM,51.8,50.0,94,30.04,4.0,SSW,3.5,-,N/A,,Overcast,210,2012-11-23 20:45:00
12:53 PM,51.1,48.9,92,30.04,4.0,SSW,3.5,-,N/A,,Overcast,200,2012-11-23 20:53:00
1:03 PM,51.8,48.2,88,30.03,3.0,South,4.6,-,N/A,,Overcast,190,2012-11-23 21:03:00
1:17 PM,51.8,50.0,94,30.03,3.0,South,8.1,-,N/A,,Overcast,190,2012-11-23 21:17:00
1:21 PM,51.8,48.2,88,30.03,2.5,South,5.8,-,N/A,,Overcast,190,2012-11-23 21:21:00
1:50 PM,51.8,50.0,94,30.02,2.0,Calm,Calm,-,N/A,,Overcast,0,2012-11-23 21:50:00
1:53 PM,51.1,50.0,96,30.03,2.5,South,3.5,-,N/A,,Overcast,190,2012-11-23 21:53:00
2:05 PM,51.8,48.2,88,30.03,3.0,SSE,4.6,-,N/A,,Overcast,160,2012-11-23 22:05:00
2:10 PM,51.8,48.2,88,30.03,3.0,Calm,Calm,-,N/A,,Overcast,0,2012-11-23 22:10:00
2:17 PM,51.8,48.2,88,30.03,3.0,South,4.6,-,N/A,,Overcast,180,2012-11-23 22:17:00
2:28 PM,51.8,48.2,88,30.03,2.5,South,3.5,-,N/A,,Overcast,190,2012-11-23 22:28:00
2:48 PM,50.0,48.2,94,30.03,1.2,South,3.5,-,0.00,Rain,Light Rain,190,2012-11-23 22:48:00
2:53 PM,50.0,48.9,96,30.03,1.2,Calm,Calm,-,0.01,Rain,Light Rain,0,2012-11-23 22:53:00
3:02 PM,50.0,48.2,94,30.03,1.8,South,3.5,-,0.00,,Overcast,190,2012-11-23 23:02:00
3:04 PM,50.0,48.2,94,30.03,2.0,SSW,4.6,-,0.00,,Overcast,200,2012-11-23 23:04:00
3:19 PM,50.0,48.2,94,30.04,2.5,South,3.5,-,0.00,,Overcast,190,2012-11-23 23:19:00
3:32 PM,50.0,48.2,94,30.04,3.0,Calm,Calm,-,0.00,,Overcast,0,2012-11-23 23:32:00
3:45 PM,50.0,48.2,94,30.04,3.0,Calm,Calm,-,0.00,,Overcast,0,2012-11-23 23:45:00
3:53 PM,50.0,48.0,93,30.04,3.0,Calm,Calm,-,0.00,,Overcast,0,2012-11-23 23:53:00
4:19 PM,48.2,46.4,93,30.04,2.0,WSW,5.8,-,0.00,Rain,Light Rain,240,2012-11-24 00:19:00
4:38 PM,48.2,46.4,93,30.04,2.5,Calm,Calm,-,0.00,,Mostly Cloudy,0,2012-11-24 00:38:00
4:53 PM,46.9,46.9,100,30.04,2.5,Calm,Calm,-,0.00,,Mostly Cloudy,0,2012-11-24 00:53:00
5:23 PM,46.4,46.4,100,30.05,1.8,Calm,Calm,-,N/A,,Mostly Cloudy,0,2012-11-24 01:23:00
5:35 PM,46.4,44.6,93,30.05,0.8,Calm,Calm,-,N/A,,Mostly Cloudy,0,2012-11-24 01:35:00
5:46 PM,44.6,44.6,100,30.05,0.2,Calm,Calm,-,N/A,Fog,Fog,0,2012-11-24 01:46:00
5:53 PM,45.0,45.0,100,30.06,0.2,Calm,Calm,-,N/A,Fog,Fog,0,2012-11-24 01:53:00
6:07 PM,44.6,44.6,100,30.06,0.5,Calm,Calm,-,N/A,Fog,Fog,0,2012-11-24 02:07:00
6:14 PM,44.6,44.6,100,30.06,0.2,Calm,Calm,-,N/A,Fog,Fog,0,2012-11-24 02:14:00
6:33 PM,44.6,44.6,100,30.06,0.5,Calm,Calm,-,N/A,Fog,Fog,0,2012-11-24 02:33:00
6:49 PM,42.8,42.8,100,30.07,0.2,Calm,Calm,-,N/A,Fog,Fog,0,2012-11-24 02:49:00
6:53 PM,44.1,43.0,96,30.07,0.2,Calm,Calm,-,N/A,Fog,Fog,0,2012-11-24 02:53:00
7:12 PM,44.6,44.6,100,30.07,0.5,Calm,Calm,-,N/A,Fog,Fog,0,2012-11-24 03:12:00
7:20 PM,44.6,42.8,93,30.07,0.2,Calm,Calm,-,N/A,Fog,Fog,0,2012-11-24 03:20:00
7:28 PM,42.8,42.8,100,30.08,0.5,Calm,Calm,-,N/A,Fog,Fog,0,2012-11-24 03:28:00
7:41 PM,42.8,42.8,100,30.08,0.2,Calm,Calm,-,N/A,Fog,Fog,0,2012-11-24 03:41:00
7:53 PM,43.0,42.1,97,30.09,0.2,Calm,Calm,-,N/A,Fog,Fog,0,2012-11-24 03:53:00
8:19 PM,42.8,42.8,100,30.08,0.2,Calm,Calm,-,N/A,Fog,Fog,0,2012-11-24 04:19:00
8:42 PM,42.8,42.8,100,30.09,0.2,Calm,Calm,-,N/A,Fog,Fog,0,2012-11-24 04:42:00
8:53 PM,42.1,41.0,96,30.10,0.2,Calm,Calm,-,N/A,Fog,Fog,0,2012-11-24 04:53:00
9:17 PM,41.0,41.0,100,30.10,0.2,Calm,Calm,-,N/A,Fog,Fog,0,2012-11-24 05:17:00
9:29 PM,42.8,42.8,100,30.10,0.2,Calm,Calm,-,N/A,Fog,Fog,0,2012-11-24 05:29:00
9:49 PM,41.0,41.0,100,30.11,0.2,Calm,Calm,-,N/A,Fog,Fog,0,2012-11-24 05:49:00
9:53 PM,41.0,41.0,100,30.12,0.2,Calm,Calm,-,N/A,Fog,Fog,0,2012-11-24 05:53:00
10:19 PM,39.2,39.2,100,30.12,0.2,Calm,Calm,-,N/A,Fog,Fog,0,2012-11-24 06:19:00
10:36 PM,39.2,39.2,100,30.12,0.2,Calm,Calm,-,N/A,Fog,Fog,0,2012-11-24 06:36:00
10:53 PM,37.9,37.9,100,30.13,0.2,Calm,Calm,-,N/A,Fog,Fog,0,2012-11-24 06:53:00
11:15 PM,37.4,37.4,100,30.13,0.8,Calm,Calm,-,N/A,,Mostly Cloudy,0,2012-11-24 07:15:00
11:25 PM,39.2,37.4,93,30.13,0.2,Calm,Calm,-,N/A,Fog,Fog,0,2012-11-24 07:25:00
11:53 PM,37.0,37.0,100,30.15,0.2,Calm,Calm,-,N/A,Fog,Fog,0,2012-11-24 07:53:00